Current weather by "City, St" or "zip code"  
 
Advertise Here

Current Conditions: Guthrie, Guthrie Municipal Airport, OK

Fair


93.0 F

Last Updated on Jun 18 2021, 5:53 pm CDT
Humidity: 44%
Wind Speed: S 13.8 mph
Barometer 29.85 in
Dewpoint: 68.0 F
Visibility: 10.00 mi
Precip: --
Heat Index: 97 F
Wind Chill: NA
Current conditions at:

Guthrie, Guthrie Municipal Airport, OK (KGOK)

Lat: 35.85194 Lon: 97.4075

Local Radar Image active severe weather and emergency alerts image image weather storm and storm spotter reports image weather observation monitoring service image
Local
Radar
Active
Alerts
Storm Reports Obs
Monitoring

Sign-up For Email & Text Message Weather Alert Notification Services


Advertise Here

Observation History for Guthrie, Guthrie Municipal Airport, OK


Time Wind
(mph)
Vis
(mi)
Weather Precip (in) Temperature (F) Relative
Humidity
Wind
Chill
(F)
Heat
Index
(F)
Pressure
Air Dwpt altimeter
(in)
sea level
(mb)
Rmks
5:53 pm CDT S 13.8 10.00 Fair -- 93.0 68.0 44% NA 97 29.85 1009.6
3:53 pm CDT S 16.1 G 23.0 10.00 Fair -- 95.0 66.0 39% NA 98 29.87 1010.2
2:53 pm CDT S 16.1 10.00 Fair -- 95.0 66.0 39% NA 98 29.88 1010.5
1:53 pm CDT S 11.5 10.00 Fair -- 94.0 64.9 38% NA 96 29.90 1011.1
12:53 pm CDT S 15.0 G 23.0 10.00 Fair -- 94.0 64.9 38% NA 96 29.91 1011.6
11:53 am CDT SW 12.7 G 20.7 10.00 Fair -- 93.0 68.0 44% NA 97 29.93 1012.2
10:53 am CDT SW 16.1 10.00 Fair -- 90.0 66.9 47% NA 93 29.94 1012.4
9:53 am CDT SW 11.5 10.00 Fair -- 87.0 68.0 53% NA 90 29.94 1012.7
8:53 am CDT S 9.2 10.00 Fair -- 83.0 69.1 63% NA 87 29.94 1012.6
7:53 am CDT S 8.1 10.00 Fair -- 78.0 69.1 74% NA NA 29.94 1012.7
6:53 am CDT S 4.6 10.00 Fair -- 72.0 68.0 87% NA NA 29.94 1012.7
4:53 am CDT S 6.9 10.00 Fair -- 72.0 68.0 87% NA NA 29.93 1012.3
3:53 am CDT S 8.1 10.00 Fair -- 73.0 68.0 84% NA NA 29.93 1012.2
2:53 am CDT S 6.9 10.00 Fair -- 75.0 68.0 79% NA NA 29.93 1012.3
1:53 am CDT S 8.1 10.00 Fair -- 75.0 68.0 79% NA NA 29.93 1012.3
12:53 am CDT S 9.2 10.00 Fair -- 77.0 68.0 74% NA NA 29.95 1012.8
11:53 pm CDT S 9.2 10.00 Fair -- 79.0 68.0 69% NA NA 29.95 1013.0
10:53 pm CDT S 9.2 10.00 Fair -- 79.0 68.0 69% NA NA 29.95 1013.0
8:53 pm CDT S 6.9 10.00 Fair -- 81.0 69.1 67% NA 84 29.94 1012.6
7:53 pm CDT S 6.9 10.00 Fair -- 88.0 69.1 54% NA 92 29.92 1012.1
6:53 pm CDT S 9.2 10.00 Fair -- 93.0 64.9 40% NA 95 29.91 1011.7

Regional Weather Observation


Guthrie, Guthrie Municipal Airport, OK (KGOK)

Fair
93.0 F

Enid, Enid Woodring Regional Airport, OK (KWDG)

Clear and Breezy
99.0 F

Stillwater, Stillwater Regional Airport, OK (KSWO)

Fair and Breezy
97.0 F

Sundance Airport, OK (KHSD)

Fair
93.0 F

Oklahoma City, Wiley Post Airport, OK (KPWA)

Fair
93.0 F

Clarence E Page Municipal Airport, OK (KRCE)

Fair
93.0 F
Advertise Here

Advertise Here